Flag for Germany Weather past 2 weeks in Calw, Baden-Württemberg, Germany

Now
75 °F

Partly sunny.


Feels Like: 77 °F
Forecast: 54 / 73 °F
Wind: 7 mph from Southwest

Location: Stuttgart-Echterdingen

Current Time: Jun 2, 2015 at 6:05:15 PM

Latest Report: Jun 2, 2015 at 4:00 PM


Visibility: 44 mi

Pressure: 30.01 "Hg

Humidity: 38%

Dew point: 48 °F

Location of CalwLocation

Historic Weather in Calw — Graph

°F

Calw temperature yesterday

Maximum temperature yesterday: 71 °F (at 2:00 PM)
Minimum temperature yesterday: 55 °F (at 11:00 PM)
Average temperature yesterday: 62 °F

Past Weeks' High & Low Weather Summary

 TemperatureHumidityPressure
High75 °F (Jun 2, 4:00 PM)97% (May 31, 6:00 AM)30.36 "Hg (May 31, 6:00 AM)
Low37 °F (May 22, 6:00 AM)27% (May 22, 4:00 PM)29.71 "Hg (May 18, 7:00 PM)
Average56 °F67%30.04 "Hg
* Reported May 18 4:00 PM — Jun 2 4:00 PM, Calw, Weather by CustomWeather, © 2015

Note: Actual official high and low records may vary slightly from our data, if they occured in-between our weather recording intervals... More about our weather records

Advertising

Calw weather history for previous 24 hours

 ConditionsComfort  
Time TempWeatherWind HumidityBarometerVisibility
4:00 PM
Tue, Jun 2
75 °FPartly sunny.7 mph38%30.01 "Hg43 mi
3:00 PM74 °FPartly sunny.7 mph44%30.02 "Hg43 mi
2:00 PM73 °FPartly sunny.8 mph44%30.03 "Hg43 mi
1:00 PM73 °FPartly sunny.N/A47%30.03 "Hg43 mi
12:00 PM69 °FPartly sunny.7 mph53%30.05 "Hg43 mi
11:00 AM68 °FOvercast.5 mph58%30.05 "Hg43 mi
10:00 AM66 °FPartly sunny.2 mph62%30.06 "Hg37 mi
9:00 AM61 °FPartly sunny.1 mph80%30.07 "Hg37 mi
8:00 AM57 °FOvercast.No wind91%30.07 "Hg37 mi
7:00 AM53 °FOvercast.1 mph95%30.07 "Hg37 mi
4:00 AM51 °FPassing clouds.1 mph93%30.08 "Hg34 mi
3:00 AM51 °FPassing clouds.1 mph92%30.07 "Hg34 mi
2:00 AM52 °FPassing clouds.1 mph89%30.07 "Hg37 mi
1:00 AM53 °FPassing clouds.1 mph89%30.08 "Hg37 mi
12:00 AM55 °FPassing clouds.1 mph87%30.06 "Hg37 mi
11:00 PM
Mon, Jun 1
55 °FPassing clouds.1 mph83%30.07 "Hg37 mi
10:00 PM57 °FOvercast.1 mph82%30.06 "Hg37 mi
9:00 PM58 °FOvercast.3 mph80%30.05 "Hg37 mi
8:00 PM59 °FOvercast.5 mph77%30.05 "Hg37 mi
7:00 PM61 °FPartly sunny.5 mph75%30.04 "Hg37 mi
6:00 PM64 °FPartly sunny.3 mph71%30.02 "Hg37 mi
Weather by CustomWeather, © 2015

See weather overviewHow to use our weather pages